STARLINK-35954 (66885 NORAD) Tracking and Keplerian Element Data

This shows tracking and keplerian element data for the satellite.

Feedback or suggestion? Click here.




ElementValue
Catalog66885
NameSTARLINK-35954
Epoch Orbit363
Epoch Day354.25003472
Epoch Year2025
RAAN36.1215
Inclination53.1575
Eccentricity6.43E-05
Argument of Perigee100.1614
Mean Anonmoly135.4099
Mean Motion15.74213634
Decay Rate-0.00079234
L11 66885U 25283H 25354.25003472 -.00079234 00000+0 -54124-3 0 9990
L22 66885 53.1575 36.1215 0000643 100.1614 135.4099 15.74213634 3634



Live tracking and technical data element details for STARLINK-35954 (NORAD 66885). STARLINK-35954 can be tracked NOW for your location showing map with azimuth and elevation plus other details from your city location.







IsCatalogInMostPopularTable: catalog: 66885, numindb: 8
Update: records affected: 1



GetName: 66885 STARLINK-35954

Hit Count: updated at: Mon, 09 Feb 2026 09:19:03 GMT